Starlink 31812

operational
NORAD ID: 59800 Int'l Des: 2024-093 Owner: SPXS Country: US Constellation: starlink
LEOCIRCULAR

About Starlink 31812

Description loading...

Live Position

Loading 3D Globe...

Upcoming Passes

Altitude History

Altitude vs Time

uPlot chart will show altitude changes over time

Two-Line Element Set

1 59800U 24093U 25259.88769959 -.00000323 00000-0 -22298-5 0 9992
2 59800 43.0071 110.5268 0000538 261.6207 98.4583 15.27564481 76184
Epoch: Sep 16, 2025 • Age: 35 hours

Current Status

Altitude 482.8 km
Velocity 7.63 km/s
Sub-Earth Point 21.91°N, 10.67°E
Launch Date May 18, 2024
Age 1.3 years
Type internet

Technical Details

Classification Payload
Mass 730.00 kg
Dry Mass 700.00 kg
Total Mass 730.00 kg
Length 0.30 m
Diameter 4.10 m
Span 29.00 m
Shape Box + pan
Manufacturer SPXS
Bus Type Starlink V2M
Phase Status In Orbit
Owner/State SPXS/US

Large Constellations

Loading constellations...